Location: Eimen
(51.8766°N, 9.7806°E)
Time: 07:49:21
(UTC+00:00)

Cosmos 2221 Rocket - Pass Details

Date: 17 August 2024
Orbit: 618 x 644 km, 82.5° (Epoch: 09 September)

Event Time Altitude Azimuth Distance (km) Brightness Sun altitude
Rises 00:23:41 0° 4° (N) 2,971 8.4 -23.6°
Reaches altitude 10° 00:28:03 10° 43° (NE) 2,052 7.1 -23.4°
Maximum altitude 00:29:00 11° 55° (NE) 2,011 6.8 -23.3°
Drops below altitude 10° 00:29:58 10° 68° (ENE) 2,048 6.7 -23.3°
Sets 00:34:17 0° 108° (ESE) 2,945 7.1 -23.1°
